[[{"header":{"parameterUnit":"m.s-1","parameterCategory":1,"la1":30.2991,"la2":30.254,"lo1":-89.0895,"lo2":-89.0444,"dy":0.0017,"dx":0.0017,"nx":28,"ny":28,"refTime":"2024-06-11T09:00:00:Z","depth":0,"parameterNumber":2,"parameterNumberName":"U-component_of_WINDS"},"data":[0,0,0,0,0,0,0,0,0,0,0,0,0,0,0,0,0,0,0,0,0,0,0,0,0,0,0,0,0,0,0,0,0,0,0,0,0,0,0,0,0,0,0,0,0,0,0,0,0,0,0,0,0,0,0,0,0,0,-1.0299,-1.0298,0,-1.0239,-1.0239,-1.0238,-1.0169,-1.0168,-1.0167,-1.0166,-1.0107,-1.0106,-1.0106,0,0,0,0,0,0,0,0,0,0,0,0,0,-1.0355,-1.0354,-1.0299,-1.0298,-1.0297,-1.0239,-1.0239,-1.0238,-1.0169,-1.0168,-1.0167,-1.0166,-1.0107,-1.0106,-1.0106,0,0,0,0,0,0,0,0,0,0,0,0,0,-1.0316,-1.0354,-1.0299,-1.0256,-1.0251,-1.024,-1.0239,-1.0238,-1.017,-1.0168,-1.0166,-1.0165,-1.0107,-1.0107,-1.0106,-1.0132,0,0,-1.0103,-1.0103,0,0,0,0,0,0,0,0,-1.0319,-1.0314,-1.0263,-1.0259,-1.0254,-1.021,-1.0237,-1.0202,-1.017,-1.0201,-1.0166,-1.0164,-1.0143,-1.0139,-1.0131,-1.0129,-1.0126,-1.0103,-1.0102,-1.0102,-1.0102,0,0,0,0,0,0,0,-1.0321,-1.0317,-1.0275,-1.0262,-1.0257,-1.024,-1.0233,-1.023,-1.0181,-1.0198,-1.0193,-1.0187,-1.014,-1.0132,-1.0129,-1.0125,-1.0103,-1.0102,-1.0102,-1.0101,-1.0144,-1.0145,0,0,0,0,0,0,-1.033,-1.0319,-1.0277,-1.0273,-1.0283,-1.0241,-1.0233,-1.0226,-1.0181,-1.0173,-1.0188,-1.0184,-1.0134,-1.013,-1.0127,-1.0156,-1.0102,-1.0101,-1.0101,-1.0142,-1.0144,-1.0146,0,0,0,0,0,0,-1.0332,-1.0327,-1.0279,-1.0295,-1.0288,-1.0241,-1.0234,-1.0225,-1.0218,-1.0174,-1.0165,-1.0189,-1.0133,-1.0128,-1.0131,-1.0153,-1.0101,-1.01,-1.014,-1.0143,-1.0145,-1.0215,0,0,0,0,0,0,-1.0334,-1.0328,-1.0337,-1.0296,-1.0287,-1.0284,-1.0235,-1.0225,-1.0216,-1.021,-1.0172,-1.0164,-1.0131,-1.0133,-1.0131,-1.0151,-1.0099,-1.0138,-1.0141,-1.0144,-1.021,-1.0219,-1.0227,0,0,0,0,0,-1.0336,-1.0358,-1.0338,-1.0333,-1.0297,-1.0286,-1.0281,-1.0242,-1.0218,-1.0227,-1.0199,-1.0166,-1.0151,-1.0134,-1.013,-1.0151,-1.0137,-1.014,-1.0144,-1.0207,-1.0217,-1.0227,0,0,0,0,0,0,-1.0404,-1.0352,-1.0329,-1.0338,-1.0317,-1.0274,-1.0284,-1.0255,-1.024,-1.0235,-1.0187,-1.018,-1.0189,-1.017,-1.0152,-1.0175,-1.0139,-1.0142,-1.0188,-1.0198,-1.0206,-1.0211,-1.0098,0,0,0,0,0,-1.042,-1.0414,-1.037,-1.0383,-1.0373,-1.0331,-1.0325,-1.0297,-1.0273,-1.0263,-1.0235,-1.0214,-1.0205,-1.02,-1.0188,-1.0206,-1.0199,-1.0219,-1.0227,-1.0234,-1.0239,-1.0249,-1.0259,-1.0158,-1.0158,-1.0158,0,0,-1.0453,-1.0424,-1.0424,-1.0396,-1.0376,-1.0373,-1.0324,-1.0322,-1.0319,-1.0263,-1.0265,-1.0244,-1.0217,-1.0229,-1.0232,-1.0213,-1.0264,-1.0239,-1.0245,-1.0245,-1.0254,-1.0264,-1.0272,-1.0161,-1.0161,-1.016,0,0,-1.0512,-1.0489,-1.0499,-1.048,-1.045,-1.0422,-1.0425,-1.0386,-1.0371,-1.0371,-1.033,-1.0326,-1.0311,-1.0294,-1.0284,-1.0338,-1.0308,-1.0336,-1.038,-1.0391,-1.0399,-1.0406,-1.0428,-1.0437,-1.034,-1.034,-1.034,0,-1.0558,-1.0551,-1.0507,-1.0509,-1.0499,-1.0447,-1.0458,-1.0441,-1.041,-1.0405,-1.0383,-1.0364,-1.0342,-1.0351,-1.0364,-1.0356,-1.0359,-1.0341,-1.0401,-1.0408,-1.0414,-1.0434,-1.0443,-1.0344,-1.0343,-1.0343,-1.0342,0,-1.0609,-1.0605,-1.0616,-1.0588,-1.0579,-1.0584,-1.0543,-1.0539,-1.0512,-1.0487,-1.049,-1.0462,-1.0445,-1.0444,-1.0417,-1.0449,-1.0439,-1.041,-1.0373,-1.0428,-1.0447,-1.0454,-1.0349,-1.0348,-1.0346,-1.0346,0,0,-1.0711,-1.0659,-1.0664,-1.0651,-1.0615,-1.0612,-1.0616,-1.0599,-1.0598,-1.0578,-1.0582,-1.057,-1.0544,-1.0533,-1.0503,-1.0513,-1.0561,-1.0483,-1.0482,-1.0501,-1.0598,-1.0622,-1.0631,-1.054,-1.0541,-1.0542,-1.0601,0,-1.0766,-1.077,-1.0732,-1.0746,-1.0743,-1.0695,-1.0698,-1.0678,-1.0654,-1.0649,-1.0622,-1.0616,-1.0581,-1.0574,-1.058,-1.0554,-1.0581,-1.0549,-1.0545,-1.0546,-1.0556,-1.0641,-1.0665,-1.0722,-1.0608,-1.0609,-1.061,0,-1.0831,-1.0815,-1.083,-1.0795,-1.0792,-1.0797,-1.078,-1.0774,-1.075,-1.0733,-1.072,-1.0687,-1.069,-1.0654,-1.0658,-1.0638,-1.0634,-1.0621,-1.0622,-1.0622,-1.0583,-1.0646,-1.0739,-1.0749,-1.062,-1.0619,-1.0619,0,-1.0907,-1.0889,-1.0896,-1.0887,-1.0846,-1.085,-1.0833,-1.0807,-1.0801,-1.0786,-1.0782,-1.0767,-1.076,-1.075,-1.0715,-1.0691,-1.0725,-1.0685,-1.0712,-1.0714,-1.0723,-1.0724,-1.082,-1.0717,-1.0717,-1.0716,-1.0716,0,-1.0974,-1.0986,-1.0931,-1.0935,-1.0947,-1.0903,-1.0917,-1.0895,-1.0873,-1.0874,-1.083,-1.0832,-1.0784,-1.0781,-1.0752,-1.0762,-1.0759,-1.0746,-1.0739,-1.0751,-1.0754,-1.075,-1.0746,-1.0719,-1.0718,-1.0718,-1.0717,0,-1.1062,-1.1025,-1.103,-1.0991,-1.0982,-1.0993,-1.0959,-1.0963,-1.0936,-1.0938,-1.0936,-1.0895,-1.0889,-1.0852,-1.0838,-1.0819,-1.084,-1.0824,-1.0849,-1.0845,-1.0875,-1.0874,-1.0975,-1.0987,-1.0874,-1.0875,-1.0876,0,-1.1109,-1.1117,-1.1079,-1.1076,-1.1061,-1.1057,-1.105,-1.1007,-1.1002,-1.0976,-1.0983,-1.0974,-1.0964,-1.0957,-1.0927,-1.0917,-1.0901,-1.0937,-1.09,-1.0913,-1.0905,-1.0907,-1.0908,-1.0946,-1.0948,-1.0949,-1.095,0,-1.1196,-1.1178,-1.1169,-1.1155,-1.1148,-1.1135,-1.1119,-1.1119,-1.1072,-1.1069,-1.1062,-1.1055,-1.104,-1.1033,-1.1017,-1.1,-1.0969,-1.0962,-1.0968,-1.0982,-1.0998,-1.0993,-1.0874,-1.096,-1.0959,-1.0959,-1.0958,-1.0958,-1.1267,-1.1272,-1.1247,-1.124,-1.1223,-1.121,-1.1212,-1.1186,-1.118,-1.1165,-1.1139,-1.1137,-1.1115,-1.109,-1.1077,-1.1075,-1.1056,-1.1065,-1.1067,-1.1071,-1.1079,-1.0996,-1.1072,-1.1071,-1.1071,-1.1071,-1.107,0,-1.1355,-1.1336,-1.1329,-1.1309,-1.1304,-1.1272,-1.1254,-1.1252,-1.125,-1.1231,-1.1223,-1.1217,-1.1209,-1.1178,-1.1168,-1.1173,-1.1158,-1.1172,-1.1173,-1.117,-1.1095,-1.1092,-1.1184,-1.1184,-1.1184,-1.1184,-1.1184,-1.1184,-1.14,-1.1409,-1.1388,-1.1389,-1.137,-1.1367,-1.136,-1.1348,-1.1333,-1.1328,-1.1321,-1.1301,-1.1278,-1.1266,-1.1258,-1.1249,-1.1249,-1.1268,-1.1255,-1.1186,-1.1175,-1.1164,-1.1162,-1.1267,-1.1268,-1.133,-1.1331,-1.1332]},{"header":{"parameterUnit":"m.s-1","parameterCategory":1,"la1":30.2991,"la2":30.254,"lo1":-89.0895,"lo2":-89.0444,"dy":0.0017,"dx":0.0017,"nx":28,"ny":28,"refTime":"2024-06-11T09:00:00:Z","depth":0,"parameterNumber":3,"parameterNumberName":"V-component_of_WINDS"},"data":[0,0,0,0,0,0,0,0,0,0,0,0,0,0,0,0,0,0,0,0,0,0,0,0,0,0,0,0,0,0,0,0,0,0,0,0,0,0,0,0,0,0,0,0,0,0,0,0,0,0,0,0,0,0,0,0,0,0,1.8506,1.8505,0,1.8422,1.8421,1.842,1.8351,1.8351,1.835,1.8349,1.8258,1.8257,1.8255,0,0,0,0,0,0,0,0,0,0,0,0,0,1.8605,1.8604,1.8506,1.8505,1.8504,1.8422,1.8421,1.8419,1.8352,1.8351,1.835,1.8349,1.8259,1.8257,1.8255,0,0,0,0,0,0,0,0,0,0,0,0,0,1.8546,1.8604,1.8506,1.846,1.8455,1.8422,1.842,1.8419,1.8352,1.8351,1.835,1.8349,1.826,1.8257,1.8254,1.8258,0,0,1.8246,1.8245,0,0,0,0,0,0,0,0,1.8549,1.8542,1.8468,1.8463,1.8458,1.8396,1.8422,1.8365,1.8352,1.8391,1.8349,1.8348,1.8305,1.8298,1.8284,1.8254,1.825,1.8246,1.8244,1.8243,1.8242,0,0,0,0,0,0,0,1.8553,1.8545,1.8472,1.8467,1.8461,1.8443,1.8433,1.8411,1.8354,1.8387,1.8382,1.8373,1.8302,1.8287,1.8282,1.8249,1.8246,1.8244,1.8242,1.8241,1.8217,1.8218,0,0,0,0,0,0,1.8565,1.8549,1.8475,1.847,1.8502,1.8442,1.8431,1.8417,1.8354,1.8344,1.8374,1.8371,1.8292,1.8285,1.8278,1.8277,1.8243,1.8241,1.8239,1.8216,1.8217,1.8218,0,0,0,0,0,0,1.8568,1.8559,1.8478,1.8508,1.8497,1.8441,1.8426,1.8416,1.8401,1.8345,1.8334,1.837,1.8291,1.8282,1.8264,1.8273,1.8239,1.8237,1.8215,1.8216,1.8218,1.8277,0,0,0,0,0,0,1.8571,1.8561,1.8562,1.8509,1.8495,1.8467,1.8426,1.8415,1.8397,1.8391,1.8338,1.8328,1.829,1.8268,1.8261,1.8269,1.8235,1.8214,1.8215,1.8217,1.8274,1.828,1.8286,0,0,0,0,0,1.8575,1.8581,1.8562,1.8554,1.8496,1.8467,1.8459,1.8416,1.8398,1.8399,1.8363,1.833,1.8275,1.8267,1.8259,1.8266,1.8213,1.8215,1.8217,1.8271,1.8279,1.8286,0,0,0,0,0,0,1.8635,1.8573,1.8552,1.8541,1.8511,1.8456,1.8455,1.8426,1.8398,1.8394,1.8341,1.8329,1.8316,1.829,1.8282,1.8266,1.8239,1.824,1.8283,1.829,1.8296,1.8301,1.8233,0,0,0,0,0,1.8647,1.863,1.8577,1.8573,1.8559,1.851,1.8496,1.8466,1.8431,1.8417,1.8379,1.8345,1.832,1.8304,1.8278,1.8271,1.8257,1.8272,1.8278,1.8283,1.8283,1.8276,1.8282,1.8225,1.8225,1.8225,0,0,1.8672,1.8636,1.8628,1.8584,1.8556,1.8539,1.8499,1.8482,1.8467,1.8413,1.8393,1.8366,1.8324,1.8312,1.8304,1.8289,1.8297,1.8286,1.8291,1.8287,1.8279,1.8285,1.8289,1.8227,1.8227,1.8226,0,0,1.8707,1.868,1.8672,1.8646,1.8606,1.8574,1.8573,1.8523,1.8502,1.8483,1.8442,1.8424,1.8382,1.8354,1.8335,1.8363,1.833,1.8356,1.8385,1.8379,1.8384,1.8387,1.8395,1.8399,1.8357,1.8357,1.8357,0,1.8742,1.8714,1.8672,1.8658,1.8639,1.8592,1.8584,1.8561,1.8513,1.8501,1.8486,1.8433,1.8402,1.8381,1.8388,1.8375,1.837,1.8359,1.8387,1.839,1.8393,1.8399,1.8403,1.836,1.836,1.8359,1.8359,0,1.8758,1.874,1.874,1.8697,1.8678,1.8667,1.8623,1.8609,1.8582,1.8552,1.8532,1.8494,1.8459,1.8453,1.8425,1.8429,1.842,1.8397,1.8368,1.8402,1.8407,1.841,1.8365,1.8363,1.8362,1.8362,0,0,1.8825,1.8761,1.8761,1.8741,1.8694,1.8679,1.8666,1.8634,1.8622,1.8593,1.8579,1.8546,1.8525,1.8503,1.8472,1.8468,1.849,1.8444,1.8442,1.8452,1.8489,1.8505,1.8508,1.847,1.8471,1.8471,1.8492,0,1.885,1.8825,1.8788,1.8774,1.8756,1.8713,1.8702,1.8671,1.8643,1.8623,1.8592,1.8569,1.8543,1.8529,1.8523,1.8489,1.8496,1.8487,1.8454,1.8454,1.8463,1.8511,1.8527,1.8549,1.8494,1.8494,1.8494,0,1.8875,1.8849,1.8834,1.8789,1.878,1.8771,1.8738,1.8721,1.8685,1.8665,1.8643,1.861,1.8593,1.8571,1.8546,1.854,1.8526,1.8507,1.8507,1.8499,1.8474,1.8502,1.8554,1.8557,1.8498,1.8497,1.8497,0,1.8922,1.8883,1.8869,1.8854,1.8802,1.8796,1.8774,1.8738,1.8721,1.8693,1.8681,1.8652,1.8635,1.8612,1.8572,1.856,1.8551,1.8525,1.8532,1.8533,1.8528,1.8529,1.8576,1.8525,1.8525,1.8525,1.8525,0,1.8952,1.8943,1.8889,1.888,1.887,1.8828,1.8819,1.8793,1.8762,1.8746,1.8708,1.8694,1.8644,1.8624,1.8593,1.8576,1.8569,1.8551,1.8542,1.8552,1.8554,1.8539,1.8535,1.8526,1.8526,1.8525,1.8525,0,1.9,1.8964,1.8945,1.8899,1.8887,1.8881,1.8841,1.883,1.8802,1.8782,1.8775,1.873,1.8704,1.8664,1.8626,1.8605,1.8593,1.858,1.8605,1.8599,1.8607,1.8606,1.8643,1.8645,1.8596,1.8597,1.8598,0,1.902,1.9013,1.8967,1.8954,1.8934,1.8914,1.8898,1.8857,1.8841,1.8802,1.8796,1.8768,1.8743,1.8704,1.8666,1.8637,1.8622,1.8637,1.8617,1.8627,1.8619,1.8618,1.8617,1.8641,1.8641,1.8642,1.8643,0,1.9058,1.9041,1.9019,1.8991,1.8973,1.8949,1.8922,1.8914,1.8868,1.8852,1.8826,1.8807,1.877,1.8742,1.8708,1.8684,1.8655,1.865,1.865,1.8658,1.8672,1.8662,1.8614,1.8648,1.8648,1.8647,1.8647,1.8647,1.909,1.9082,1.9048,1.9025,1.9002,1.8979,1.8967,1.8938,1.8916,1.8883,1.8861,1.8836,1.8802,1.8754,1.8732,1.8712,1.8699,1.8699,1.8698,1.8698,1.8701,1.8679,1.8706,1.8706,1.8705,1.8705,1.8705,0,1.9124,1.9101,1.9081,1.9046,1.9028,1.9006,1.8976,1.8962,1.8941,1.8913,1.889,1.8861,1.8834,1.8796,1.8766,1.8757,1.8743,1.875,1.8749,1.8743,1.8715,1.8717,1.8762,1.8762,1.8762,1.8762,1.8762,1.8762,1.9139,1.9123,1.9103,1.9075,1.9052,1.9029,1.9014,1.8992,1.8969,1.8938,1.8917,1.8893,1.886,1.8829,1.8803,1.8792,1.8782,1.8793,1.8778,1.8751,1.8746,1.874,1.8742,1.8792,1.8792,1.8808,1.8808,1.8808]}]]